| time (UTC) | temp F | wind direction | speed MPH | gust MPH | rain 1hr in | rain 24hr in | rain mn in | humidity % | barometer mb |
| 20260505021528 | 50 | 360 | 3.0 | 4.0 | 0.00 | 0.00 | 0.00 | 33 | 1013.9 |
| 20260505020031 | 52 | 321 | 1.0 | 3.0 | 0.00 | 0.00 | 0.00 | 31 | 1013.8 |
| 20260505014534 | 53 | 321 | 1.0 | 3.0 | 0.00 | 0.00 | 0.00 | 31 | 1013.6 |
| 20260505013030 | 54 | 278 | 2.0 | 7.0 | 0.00 | 0.00 | 0.00 | 30 | 1013.9 |
| 20260505011530 | 54 | 255 | 4.0 | 8.0 | 0.00 | 0.00 | 0.00 | 29 | 1013.9 |
| 20260505010031 | 55 | 225 | 5.0 | 12.0 | 0.00 | 0.00 | 0.00 | 29 | 1014.0 |
| 20260505004533 | 55 | 270 | 5.0 | 9.0 | 0.00 | 0.00 | 0.00 | 30 | 1014.1 |
| 20260505003031 | 56 | 287 | 8.0 | 12.0 | 0.00 | 0.00 | 0.00 | 28 | 1014.1 |
| 20260505001529 | 56 | 292 | 8.0 | 13.0 | 0.00 | 0.00 | 0.00 | 27 | 1014.3 |
| 20260505000045 | 57 | 268 | 5.0 | 12.0 | 0.00 | 0.00 | 0.00 | 28 | 1014.3 |
| 20260504234533 | 57 | 275 | 10.0 | 14.0 | 0.00 | 0.00 | 0.00 | 27 | 1014.4 |
| 20260504233028 | 57 | 274 | 5.0 | 14.0 | 0.00 | 0.00 | 0.00 | 27 | 1014.7 |
| 20260504231532 | 58 | 294 | 6.0 | 14.0 | 0.00 | 0.00 | 0.00 | 25 | 1014.9 |
| 20260504230027 | 57 | 271 | 4.0 | 11.0 | 0.00 | 0.00 | 0.00 | 29 | 1014.8 |
| 20260504224528 | 58 | 233 | 7.0 | 15.0 | 0.00 | 0.00 | 0.00 | 32 | 1014.9 |
| 20260504223042 | 57 | 261 | 6.0 | 17.0 | 0.00 | 0.00 | 0.00 | 34 | 1014.9 |
| 20260504221531 | 57 | 255 | 10.0 | 20.0 | 0.00 | 0.00 | 0.00 | 32 | 1014.8 |
| 20260504220028 | 58 | 297 | 3.0 | 17.0 | 0.00 | 0.00 | 0.00 | 30 | 1015.0 |
| 20260504214531 | 59 | 253 | 12.0 | 19.0 | 0.00 | 0.00 | 0.00 | 27 | 1015.1 |
| 20260504213037 | 59 | 265 | 8.0 | 14.0 | 0.00 | 0.00 | 0.00 | 32 | 1015.1 |
| 20260504211532 | 58 | 202 | 6.0 | 15.0 | 0.00 | 0.00 | 0.00 | 31 | 1015.6 |
| 20260504210030 | 59 | 260 | 9.0 | 15.0 | 0.00 | 0.00 | 0.00 | 31 | 1015.6 |
| 20260504204541 | 58 | 236 | 9.0 | 15.0 | 0.00 | 0.00 | 0.00 | 35 | 1015.6 |
| 20260504203029 | 58 | 251 | 9.0 | 21.0 | 0.00 | 0.00 | 0.00 | 35 | 1015.9 |
| 20260504201529 | 57 | 244 | 12.0 | 18.0 | 0.00 | 0.00 | 0.00 | 38 | 1016.0 |
| 20260504200028 | 56 | 275 | 11.0 | 22.0 | 0.00 | 0.00 | 0.00 | 41 | 1016.1 |
| 20260504194526 | 57 | 218 | 10.0 | 18.0 | 0.00 | 0.00 | 0.00 | 42 | 1016.4 |
| 20260504193030 | 56 | 238 | 7.0 | 17.0 | 0.00 | 0.00 | 0.00 | 43 | 1016.4 |
| 20260504191530 | 56 | 218 | 5.0 | 16.0 | 0.00 | 0.00 | 0.00 | 43 | 1016.4 |
| 20260504190028 | 56 | 298 | 9.0 | 14.0 | 0.00 | 0.00 | 0.00 | 44 | 1016.4 |
| 20260504184526 | 55 | 263 | 9.0 | 17.0 | 0.00 | 0.00 | 0.00 | 47 | 1016.7 |
| 20260504183027 | 56 | 234 | 6.0 | 14.0 | 0.00 | 0.00 | 0.00 | 48 | 1016.9 |
| 20260504181531 | 55 | 240 | 5.0 | 14.0 | 0.00 | 0.00 | 0.00 | 47 | 1017.0 |
| 20260504180028 | 55 | 232 | 4.0 | 9.0 | 0.00 | 0.00 | 0.00 | 49 | 1017.3 |
| 20260504174528 | 55 | 234 | 7.0 | 13.0 | 0.00 | 0.00 | 0.00 | 51 | 1017.3 |
| 20260504173026 | 55 | 227 | 4.0 | 9.0 | 0.00 | 0.00 | 0.00 | 52 | 1017.3 |
| 20260504171530 | 54 | 275 | 5.0 | 11.0 | 0.00 | 0.00 | 0.00 | 51 | 1017.4 |
| 20260504081528 | 45 | 21 | 8.0 | 14.0 | 0.00 | 0.00 | 0.00 | 71 | 1017.6 |
| 20260504044541 | 52 | 360 | 10.0 | 20.0 | 0.00 | 0.00 | 0.00 | 48 | 1018.9 |
| 20260504043030 | 53 | 5 | 4.0 | 10.0 | 0.00 | 0.00 | 0.00 | 44 | 1019.2 |
| 20260504041530 | 54 | 337 | 8.0 | 21.0 | 0.00 | 0.00 | 0.00 | 42 | 1019.2 |
| 20260504040032 | 55 | 319 | 11.0 | 18.0 | 0.00 | 0.00 | 0.00 | 38 | 1018.6 |
| 20260504034530 | 56 | 337 | 7.0 | 12.0 | 0.00 | 0.00 | 0.00 | 35 | 1018.1 |
| 20260504033030 | 56 | 289 | 7.0 | 22.0 | 0.00 | 0.00 | 0.00 | 34 | 1018.0 |
| 20260504031531 | 56 | 325 | 11.0 | 22.0 | 0.00 | 0.00 | 0.00 | 34 | 1017.9 |
| 20260504030028 | 56 | 212 | 5.0 | 15.0 | 0.00 | 0.00 | 0.00 | 33 | 1017.7 |
| 20260504024530 | 54 | 121 | 1.0 | 4.0 | 0.00 | 0.00 | 0.00 | 33 | 1017.4 |
| 20260504023030 | 56 | 130 | 0.0 | 3.0 | 0.00 | 0.00 | 0.00 | 34 | 1017.1 |